Weather in Bismarck

United States     46°47′42″N   100°46′59″W
temp.,
°C
wind,
m/s
gust,
m/s
humid.,
%
clouds,
%
prec.,
mm/h
press.,
hPa
HPBL,
m
25 may, wed
wed2501:00+10se2274100 0.0 101828
04:00+10sse117297 0.0 101710
07:00+10sse2277100 0.0 101738
10:00+15sse345980 0.0 1016509
13:00+19sse334158 0.0 10142316
16:00+19se3237100 0.0 10132086
19:00+18se44475 0.0 1011985
22:00+12se33685 0.0 101144
26 may, thu
thu2601:00+10sse411815 0.0 1011244
04:00+11s4117596 0.0 1011319
07:00+10sse411835 0.0 1010308
10:00+17ssw34575 0.0 1009496
13:00+22wnw34432 0.0 10081664
16:00+24nw453892 0.0 10082712
19:00+22nnw254991 0.0 1008592
22:00+16w12610 0.0 100911
27 may, fri
fri2701:00+14sw116211 0.0 101011
04:00+12ssw117151 0.0 101110
07:00+13ssw227398 0.0 101113
10:00+20s345333 0.0 1009436
13:00+25se553778 0.0 10071453
16:00+24sse784099 0.0 10051228
19:00+23se7115116 0.0 10011114
22:00+17wsw3682100 2.3 1002186
28 may, sat
sat2801:00+15ese3792100 5.9 1001241
04:00+13ne119629 0.0 99911
07:00+14w2396100 0.0 100088
10:00+20nw3670100 0.0 999498
13:00+25wnw1242100 0.0 9981306
16:00+19sw2371100 0.1 998122
19:00+16n3582100 0.6 999268
22:00+13ene3593100 0.0 997110
29 may, sun
sun2901:00+13nw4596100 2.9 997169
04:00+14ene51095100 7.9 996347
07:00+14ene41294100 8.3 995446
10:00+17e5892100 0.3 995495
13:00+18ene478994 0.8 994646
16:00+18ene51088100 0.7 993714
19:00+17wnw3598100 7.2 994255
22:00+14n399286 2.9 997344